This is the latest recevied weather packets stored in our database for station/object K5NCO. If no packets are shown the sender has not sent any weather packets the latest 1 day(s).
| Time | Temp. | Humidity | Pressure | Rain* | Wind** | Luminosity | Snow |
|---|---|---|---|---|---|---|---|
| 1778021371 | 28.33° C | 73% | 1007 hPa | 0 mm | 1.79 m/s, 197° | 206 W/m² | - |
| 1778021068 | 28.33° C | 74% | 1007.1 hPa | 0 mm | 1.79 m/s, 109° | 166 W/m² | - |
| 1778020765 | 28.33° C | 73% | 1007.2 hPa | 0 mm | 1.79 m/s, 150° | 241 W/m² | - |
| 1778020462 | 28.33° C | 74% | 1007.1 hPa | 0 mm | 3.13 m/s, 160° | 208 W/m² | - |
| 1778020158 | 28.33° C | 74% | 1007.1 hPa | 0 mm | 3.58 m/s, 185° | 174 W/m² | - |
| 1778019854 | 28.33° C | 74% | 1006.9 hPa | 0 mm | 2.68 m/s, 126° | 291 W/m² | - |
| 1778019550 | 28.33° C | 74% | 1006.8 hPa | 0 mm | 3.13 m/s, 166° | 221 W/m² | - |
| 1778019248 | 28.33° C | 74% | 1007.2 hPa | 0 mm | 4.02 m/s, 114° | 361 W/m² | - |
| 1778018945 | 28.33° C | 74% | 1007.1 hPa | 0 mm | 3.58 m/s, 101° | 290 W/m² | - |
| 1778018642 | 28.33° C | 74% | 1007.2 hPa | 0 mm | 4.92 m/s, 189° | 283 W/m² | - |
| 1778018340 | 28.89° C | 71% | 1007.4 hPa | 0 mm | 4.02 m/s, 142° | 327 W/m² | - |
| 1778018037 | 28.89° C | 72% | 1007.4 hPa | 0 mm | 1.79 m/s, 164° | 320 W/m² | - |
| 1778017735 | 28.89° C | 71% | 1007.3 hPa | 0 mm | 4.02 m/s, 201° | 467 W/m² | - |
| 1778017432 | 28.33° C | 71% | 1007.6 hPa | 0 mm | 5.36 m/s, 159° | 438 W/m² | - |
| 1778017129 | 28.33° C | 72% | 1007.7 hPa | 0 mm | 4.47 m/s, 174° | 459 W/m² | - |
| 1778016827 | 28.33° C | 72% | 1007.4 hPa | 0 mm | 4.02 m/s, 188° | 453 W/m² | - |
| 1778016523 | 28.33° C | 72% | 1007.6 hPa | 0 mm | 4.02 m/s, 207° | 508 W/m² | - |
| 1778016220 | 28.33° C | 72% | 1007.6 hPa | 0 mm | 3.13 m/s, 187° | 455 W/m² | - |
| 1778015916 | 28.33° C | 72% | 1007.8 hPa | 0 mm | 4.92 m/s, 172° | 499 W/m² | - |
| 1778015614 | 27.78° C | 74% | 1007.9 hPa | 0 mm | 2.68 m/s, 143° | 521 W/m² | - |
| 1778015310 | 27.78° C | 74% | 1007.7 hPa | 0 mm | 4.92 m/s, 183° | 568 W/m² | - |
| 1778015007 | 27.78° C | 73% | 1007.8 hPa | 0 mm | 4.92 m/s, 99° | 555 W/m² | - |
| 1778014704 | 27.78° C | 75% | 1008 hPa | 0 mm | 3.58 m/s, 101° | 461 W/m² | - |
| 1778014403 | 27.78° C | 74% | 1008.1 hPa | 0 mm | 4.92 m/s, 188° | 472 W/m² | - |
| 1778014099 | 27.78° C | 74% | 1008 hPa | 0 mm | 5.36 m/s, 147° | 600 W/m² | - |
* Rain latest hour (hover to see other rain measurements)
** Current wind speed in m/s (hover to see current wind gust speed)